Location: Edinburgh
(55.9500°N, 3.1600°W)
Time: 08:14:10
(UTC+01:00)

Envisat - Pass Details

Date: 20 February 2019
Orbit: 764 x 766 km, 98.1° (Epoch: 23 October)

Event Time Altitude Azimuth Distance (km) Brightness Sun altitude
Rises 20:34:10 0° 224° (SW) 3,226 6.5 -26.5°
Reaches altitude 10° 20:37:57 10° 253° (WSW) 2,306 6.1 -27.0°
Maximum altitude 20:40:05 13° 279° (W) 2,134 6.2 -27.3°
Drops below altitude 10° 20:42:14 10° 304° (NW) 2,313 6.4 -27.5°
Sets 20:46:04 0° 333° (NNW) 3,246 7.0 -28.0°
